Regional Weather Roundup
Issued by NWS

Home | Current Version | Previous Version | Graphics & Text | Print | Product List | Glossary On
Versions: 1 2 3 4 5 6 7 8 9 10 11 12 13 14 15 16 17 18 19 20 21 22 23 24 25 26 27 28 29 30 31 32 33 34 35 36 37 38 39 40 41 42 43 44 45 46 47 48 49 50
000
ASUS43 KDTX 071701
RWRMI
MICHIGAN HOURLY REGIONAL WEATHER ROUNDUP
NATIONAL WEATHER SERVICE DETROIT/PONTIAC MI
100 PM EDT TUE JUL 07 2015

NOTE: "FAIR" INDICATES FEW OR NO CLOUDS BELOW 12,000 FEET WITH NO
SIGNIFICANT WEATHER AND/OR OBSTRUCTION TO VISIBILITY.

MIZ047>049-052>055-059>063-066>070-074>076-081>083-071800-
SOUTHEAST LOWER MICHIGAN

CITY           SKY/WX    TMP DP  RH WIND       PRES   REMARKS
ADRIAN         LGT RAIN  74  71  91 W7        29.89S
ALMA           CLOUDY    66  59  79 NW13      29.91S
ANN ARBOR      LGT RAIN  73  71  93 SW9       29.87S
BAD AXE        DRIZZLE   61  60  96 N12       29.87S
CARO           DRIZZLE   63  62  97 NW9G16    29.88R
DETROIT CITY   LGT RAIN  76  72  87 W13       29.85S
DETROIT        LGT RAIN  76  71  85 SW13      29.87R
FLINT          LGT RAIN  64  61  90 N9        29.89R FOG
GROSSE ILE     LGT RAIN  73  70  88 SW8       29.86S
HILLSDALE      LGT RAIN  73  73 100 W5        29.89F
HOWELL         LGT RAIN  64  63  97 NW8       29.89R

CITY           SKY/WX    TMP DP  RH WIND       PRES   REMARKS
JACKSON        LGT RAIN  65  63  93 N14G21    29.90R
LAMBERTVILLE   LGT RAIN  74  71  87 W7        29.89S
LANSING        LGT RAIN  61  58  90 N7        29.92R
LAPEER         LGT RAIN  64  62  94 N15       29.87R
MASON          RAIN      59  58  96 NW10      29.91R
MONROE         LGT RAIN  74  71  92 SW10      29.87S
MT. CLEMENS    LGT RAIN  74  72  92 SW12      29.82S FOG
PONTIAC        RAIN      72  70  93 SW10      29.84S FOG
PORT HOPE        N/A     62  61  96 N8        29.86R
PORT HURON     LGT RAIN  73  72  94 SW6       29.84S
TRI CITIES     CLOUDY    66  60  81 NW14      29.90R
MIDLAND        CLOUDY    64  58  80 NW12G20   29.89S
TROY           LGT RAIN  74  72  92 SW10G17   29.86F
SAGINAW HB     DRIZZLE  N/A N/A N/A NW8       29.89R
$$
MIZ043>046-050>051-056>058-064>065-071>073-077>080-071800-
SOUTHWEST LOWER MICHIGAN

CITY           SKY/WX    TMP DP  RH WIND       PRES   REMARKS
BATTLE CREEK   CLOUDY    65  60  84 N8        29.93R
BENTON HARBOR  MOSUNNY   63  56  78 NW12G23   29.97R
BIG RAPIDS     CLOUDY    62  52  70 NW13G18   29.95R
COLDWATER      DRIZZLE   65  64  97 NW9       29.91S
FREMONT        FAIR      65  50  56 N13G24    29.96R
HOLLAND        SUNNY     67  54  63 W12G20    29.96R
GRAND RAPIDS   PTSUNNY   69  56  62 NW13      29.93S
IONIA          CLOUDY    67  59  76 N14       29.91S
KALAMAZOO      PTSUNNY   66  59  78 N12G21    29.93R
LUDINGTON      MOSUNNY   62  51  66 N21G30    30.01R
MARSHALL       CLOUDY    63  60  92 NW6       29.91R
MOUNT PLEASANT CLOUDY    64  55  71 NW13G18   29.92R
MUSKEGON       MOSUNNY   69  49  48 N18       29.96R
SOUTH HAVEN    MOSUNNY   64  55  74 NW16      29.96S
$$
MIZ016>042-071800-
NORTHERN LOWER MICHIGAN

CITY           SKY/WX    TMP DP  RH WIND       PRES   REMARKS
ALPENA         CLOUDY    60  55  83 NW10G22   29.90R
BEAVER ISLAND  CLOUDY    62  47  57 N15       29.99R
BELLAIRE       CLOUDY    62  49  63 NW10G16   29.97R
CADILLAC       CLOUDY    61  50  67 N13       29.96R
CHARLEVOIX     SUNNY     63  50  63 N12G18    30.01R
FRANKFORT      SUNNY     64  47  54 NW14G25   30.01S
GAYLORD        CLOUDY    59  52  77 NW9G17    29.95R
GRAYLING       CLOUDY    60  52  73 NW13G22   29.95R
HARBOR SPRINGS MOSUNNY   62  49  62 NW14G20   29.96R
HOUGHTON LAKE  CLOUDY    61  52  72 NW13G25   29.94R
MANISTEE       SUNNY     61  48  63 N16G24    30.02R
OSCODA         CLOUDY    63  59  88 N13G20    29.88R
PELLSTON       PTSUNNY   64  49  57 NW18G25   29.96R
ROGERS CITY    CLOUDY    61  56  81 NW14G22   29.92R
TRAVERSE CITY  PTSUNNY   64  50  60 N17G26    29.97R
$$
MIZ007>008-015-071800-
EASTERN UPPER MICHIGAN

CITY           SKY/WX    TMP DP  RH WIND       PRES   REMARKS
KINROSS        MOSUNNY   61  48  63 NW18G26   29.93S
MACKINAC ISLAN PTSUNNY   63  49  59 N12G24    29.94R
NEWBERRY       CLOUDY    59  47  65 NW14G23   29.99R
S. S. MARIE    CLOUDY    59  49  69 NW15G22   29.93R
$$
MIZ004>006-011>014-085-071800-
CENTRAL UPPER MICHIGAN

CITY           SKY/WX    TMP DP  RH WIND       PRES   REMARKS
MANISTIQUE     CLOUDY    62  46  55 N12G25    30.00R
ESCANABA       PTSUNNY   61  46  59 N17G24    30.03S
MENOMINEE      PTSUNNY   63  46  55 N14       30.03F
SAWYER-GWINN   PTSUNNY   57  46  67 N20       30.06S
$$
MIZ001>003-009>011-084-071800-
WESTERN UPPER MICHIGAN

CITY           SKY/WX    TMP DP  RH WIND       PRES   REMARKS
IRON MOUNTAIN  CLOUDY    62  45  53 N16G23    30.05S
HOUGHTON       SUNNY     60  45  57 NW12      30.09R
COPPER HARBOR    N/A     56  47  71 N15       30.07R
IRONWOOD       MOSUNNY   59  46  63 NW10      30.11S
$$

ABBREVIATIONS USED IN REMARKS
   TC - TEMPERATURE IN CELSIUS
  WCI - WIND CHILL INDEX
   HX - HEAT INDEX
  VSB - VISIBILITY



USA.gov is the U.S. government's official web portal to all federal, state and local government web resources and services.